Location: Glencliff
(36.1226°N, 86.7183°W)
Time: 04:16:43
(UTC+00:00)

Cosmos 1898 Rocket - Pass Details

Date: 25 August 2019
Orbit: 755 x 783 km, 74.0° (Epoch: 19 September)

Event Time Altitude Azimuth Distance (km) Brightness Sun altitude
Rises 01:01:19 0° 168° (SSE) 3,238 6.4 -7.7°
Reaches altitude 10° 01:03:58 10° 157° (SSE) 2,311 5.6 -8.2°
Maximum altitude 01:08:25 28° 99° (E) 1,404 4.3 -9.0°
Drops below altitude 10° 01:12:50 10° 42° (NE) 2,308 5.8 -9.9°
Sets 01:15:28 0° 31° (NNE) 3,234 6.6 -10.4°
